Greenville, AL

6:58 AM CST on February 26, 2017 (GMT -0600)
Greenville Municipal

Weather History for KPRN - July, 2013

Change the Weather History Date:

Sunday, July 21, 2013

  Actual Average Record
Temperature  
Mean Temperature 80 °F -  
Max Temperature 86 °F 91 °F 101 °F (1952)
Min Temperature 73 °F 70 °F 63 °F (1946)
Cooling Degree Days 14    
Growing Degree Days 30 (Base 50)    
Moisture  
Dew Point 73 °F    
Average Humidity 84    
Maximum Humidity 100    
Minimum Humidity 62    
Precipitation  
Precipitation 0.19 in - - ()
Sea Level Pressure  
Sea Level Pressure 30.02 in    
Wind  
Wind Speed 4 mph (SW)    
Max Wind Speed 8 mph    
Max Gust Speed 20 mph    
Visibility 9 miles    
Events Rain , Thunderstorm    
Averages and records for this station are not official NWS values.
T = Trace of Precipitation, MM = Missing Value Source: NWS Daily Summary

Daily Weather History Graph

Daily Weather History Graph

Search for Another Location

Airport or City:

Trip Planner

Search our weather history database for the weather conditions in past years. The results will help you decide how hot, cold, wet, or windy it might be!

Date:

Astronomy

Jul. 21, 2013 Rise Set
Actual Time 5:55 AM CDT 7:50 PM CDT
Civil Twilight 5:27 AM CDT 8:17 PM CDT
Nautical Twilight 4:54 AM CDT 8:50 PM CDT
Astronomical Twilight 4:19 AM CDT 9:25 PM CDT
Moon 6:50 PM CDT (7/21) 4:39 AM CDT (7/21)
Length of Visible Light 14h 49m
Length of Day
13h 55m
Waxing Gibbous, 98% of the Moon is Illuminated
Jul 21
Waxing Gibbous
Jul 22
Full
Jul 29
Last Quarter
Aug 6
New
Aug 14
First Quarter

Hourly Weather History & Observations

Time (CDT) Temp. Heat Index Dew Point Humidity Pressure Visibility Wind Dir Wind Speed Gust Speed Precip Events Conditions
12:44 AM 75.2 °F - 73.4 °F 94% 30.02 in 10.0 mi Calm Calm - N/A   Scattered Clouds
12:56 AM 75.0 °F - 73.0 °F 94% 30.00 in 10.0 mi South 3.5 mph - N/A   Partly Cloudy
1:56 AM 73.9 °F - 73.0 °F 97% 29.99 in 9.0 mi Calm Calm - N/A   Mostly Cloudy
3:20 AM 73.4 °F - 73.4 °F 100% 30.00 in 7.0 mi SSW 3.5 mph - N/A   Mostly Cloudy
4:56 AM 75.0 °F - 73.0 °F 94% 30.00 in 7.0 mi SW 3.5 mph - N/A   Overcast
5:20 AM 75.2 °F - 73.4 °F 94% 30.02 in 7.0 mi SSW 4.6 mph - N/A   Mostly Cloudy
5:56 AM 75.0 °F - 73.0 °F 94% 30.01 in 8.0 mi SW 4.6 mph - N/A   Mostly Cloudy
6:36 AM 75.2 °F - 73.4 °F 94% 30.03 in 8.0 mi Calm Calm - N/A   Partly Cloudy
9:14 AM 80.6 °F 86.2 °F 75.2 °F 84% 30.05 in 10.0 mi West 5.8 mph - N/A   Mostly Cloudy
9:30 AM 80.6 °F 86.2 °F 75.2 °F 84% 30.05 in 10.0 mi WSW 5.8 mph - N/A   Scattered Clouds
9:56 AM 82.9 °F 90.2 °F 75.0 °F 77% 30.04 in 10.0 mi Variable 5.8 mph - N/A   Partly Cloudy
10:56 AM 81.0 °F 85.8 °F 73.0 °F 77% 30.03 in 10.0 mi Variable 4.6 mph - 0.00 in Rain Light Rain
11:06 AM 78.8 °F - 73.4 °F 83% 30.05 in 10.0 mi SSW 5.8 mph - 0.00 in Rain , Thunderstorm Light Thunderstorms and Rain
11:21 AM 80.6 °F 84.6 °F 71.6 °F 74% 30.05 in 10.0 mi SW 4.6 mph - 0.00 in   Scattered Clouds
11:35 AM 80.6 °F 84.6 °F 71.6 °F 74% 30.06 in 10.0 mi SSW 5.8 mph - 0.00 in Rain , Thunderstorm Light Thunderstorms and Rain
12:32 PM 82.4 °F 88.2 °F 73.4 °F 74% 30.04 in 10.0 mi Variable 6.9 mph - N/A Thunderstorm Thunderstorm
12:56 PM 79.0 °F - 72.0 °F 79% 30.03 in 10.0 mi SW 8.1 mph - 0.00 in Rain , Thunderstorm Light Thunderstorms and Rain
1:15 PM 78.8 °F - 71.6 °F 78% 30.04 in 10.0 mi WSW 6.9 mph - 0.00 in Rain Light Rain
1:56 PM 82.0 °F 85.9 °F 70.0 °F 67% 30.00 in 10.0 mi SW 4.6 mph - 0.00 in Thunderstorm Thunderstorm
2:18 PM 84.2 °F 89.6 °F 71.6 °F 66% 30.01 in 10.0 mi West 6.9 mph - N/A   Partly Cloudy
2:56 PM 84.9 °F 91.4 °F 73.0 °F 67% 29.98 in 10.0 mi South 6.9 mph - N/A   Scattered Clouds
3:04 PM 84.2 °F 89.6 °F 71.6 °F 66% 29.99 in 10.0 mi SW 5.8 mph - N/A Thunderstorm Thunderstorm
3:19 PM 86.0 °F 91.8 °F 71.6 °F 62% 29.99 in 10.0 mi South 4.6 mph - N/A   Clear
3:28 PM 84.2 °F 90.9 °F 73.4 °F 70% 30.00 in 10.0 mi South 4.6 mph - N/A Thunderstorm Thunderstorm
4:40 PM 75.2 °F - 71.6 °F 89% 30.02 in 1.8 mi SW 8.1 mph 19.6 mph 0.08 in Rain , Thunderstorm Heavy Thunderstorms and Rain
4:56 PM 75.0 °F - 73.0 °F 94% 30.00 in 3.0 mi SW 4.6 mph - 0.19 in Rain , Thunderstorm Light Thunderstorms and Rain
5:20 PM 75.2 °F - 71.6 °F 89% 30.03 in 10.0 mi SW 5.8 mph - 0.00 in Rain Light Rain
5:56 PM 75.0 °F - 72.0 °F 90% 30.00 in 10.0 mi WSW 5.8 mph - 0.00 in Thunderstorm Thunderstorm
6:11 PM 75.2 °F - 71.6 °F 89% 30.02 in 10.0 mi WSW 4.6 mph - N/A   Clear
6:56 PM 75.9 °F - 73.0 °F 91% 30.00 in 10.0 mi SSW 3.5 mph - N/A   Clear
7:56 PM 75.0 °F - 73.0 °F 94% 30.01 in 10.0 mi SSW 4.6 mph - N/A   Clear
8:56 PM 75.0 °F - 72.0 °F 90% 30.03 in 10.0 mi SSW 3.5 mph - N/A   Clear
9:56 PM 73.9 °F - 71.1 °F 91% 30.03 in 10.0 mi SSW 4.6 mph - N/A   Clear
10:56 PM 73.0 °F - 70.0 °F 90% 30.04 in 10.0 mi SW 8.1 mph - N/A   Clear
11:56 PM 73.0 °F - 70.0 °F 90% 30.03 in 10.0 mi SW 3.5 mph - N/A   Clear